Powrót do katalogu

STARLINK-34828

AktywnyŁącznośćVLEO
NORAD 65353·PAYLOAD·🇺🇸 United States

Wystrzelony Aug 28, 2025 z Cape Canaveral Space Force Station

Loading…

Następne Przeloty (najbliższe 24 godziny)

TLE

ŚwieżeSource: CelesTrak SupGP

Epoka: Sep 15, 2026, 02:59 UTC

1 65353C 25190C   26258.12479167  .00062985  00000+0  18606-2 0  2589
2 65353  53.1612   7.0740 0001135  87.5657 338.2895 15.34364332    11

Śledź STARLINK-34828 w czasie rzeczywistym z AllMySat

Download on the App Store